Year,Month,Day,Hour,Minute,Value (Times are PST for temperature in C)
2016,04,20,00,00,17.20
2016,04,20,00,01,17.20
2016,04,20,00,02,17.10
2016,04,20,00,03,17.10
2016,04,20,00,04,17.10
2016,04,20,00,05,17.10
2016,04,20,00,06,17.00
2016,04,20,00,07,17.00
2016,04,20,00,08,17.00
2016,04,20,00,09,16.90
2016,04,20,00,10,16.90
2016,04,20,00,11,16.90
2016,04,20,00,12,16.80
2016,04,20,00,13,16.80
2016,04,20,00,14,16.80
2016,04,20,00,15,16.80
2016,04,20,00,16,16.80
2016,04,20,00,17,16.80
2016,04,20,00,18,16.80
2016,04,20,00,19,16.80
2016,04,20,00,20,16.70
2016,04,20,00,21,16.70
2016,04,20,00,22,16.70
2016,04,20,00,23,16.70
2016,04,20,00,24,16.70
2016,04,20,00,25,16.70
2016,04,20,00,26,16.60
2016,04,20,00,27,16.60
2016,04,20,00,28,16.60
2016,04,20,00,29,16.60
2016,04,20,00,30,16.50
2016,04,20,00,31,16.50
2016,04,20,00,32,16.50
2016,04,20,00,33,16.50
2016,04,20,00,34,16.50
2016,04,20,00,35,16.50
2016,04,20,00,36,16.50
2016,04,20,00,37,16.50
2016,04,20,00,38,16.50
2016,04,20,00,39,16.60
2016,04,20,00,40,16.60
2016,04,20,00,41,16.60
2016,04,20,00,42,16.60
2016,04,20,00,43,16.60
2016,04,20,00,44,16.60
2016,04,20,00,45,16.60
2016,04,20,00,46,16.60
2016,04,20,00,47,16.60
2016,04,20,00,48,16.60
2016,04,20,00,49,16.60
2016,04,20,00,50,16.60
2016,04,20,00,51,16.60
2016,04,20,00,52,16.60
2016,04,20,00,53,16.60
2016,04,20,00,54,16.60
2016,04,20,00,55,16.60
2016,04,20,00,56,16.60
2016,04,20,00,57,16.60
2016,04,20,00,58,16.50
2016,04,20,00,59,16.50
2016,04,20,01,00,16.50
2016,04,20,01,01,16.50
2016,04,20,01,02,16.40
2016,04,20,01,03,16.40
2016,04,20,01,04,16.40
2016,04,20,01,05,16.40
2016,04,20,01,06,16.40
2016,04,20,01,07,16.40
2016,04,20,01,08,16.40
2016,04,20,01,09,16.40
2016,04,20,01,10,16.40
2016,04,20,01,11,16.40
2016,04,20,01,12,16.40
2016,04,20,01,13,16.40
2016,04,20,01,14,16.40
2016,04,20,01,15,16.40
2016,04,20,01,16,16.40
2016,04,20,01,17,16.30
2016,04,20,01,18,16.30
2016,04,20,01,19,16.30
2016,04,20,01,20,16.30
2016,04,20,01,21,16.30
2016,04,20,01,22,16.30
2016,04,20,01,23,16.20
2016,04,20,01,24,16.20
2016,04,20,01,25,16.20
2016,04,20,01,26,16.10
2016,04,20,01,27,16.10
2016,04,20,01,28,16.10
2016,04,20,01,29,16.10
2016,04,20,01,30,16.00
2016,04,20,01,31,16.00
2016,04,20,01,32,16.00
2016,04,20,01,33,16.00
2016,04,20,01,34,16.00
2016,04,20,01,35,16.00
2016,04,20,01,36,16.00
2016,04,20,01,37,16.00
2016,04,20,01,38,16.00
2016,04,20,01,39,16.00
2016,04,20,01,40,16.00
2016,04,20,01,41,16.00
2016,04,20,01,42,16.00
2016,04,20,01,43,16.00
2016,04,20,01,44,15.90
2016,04,20,01,45,15.90
2016,04,20,01,46,15.90
2016,04,20,01,47,15.90
2016,04,20,01,48,15.90
2016,04,20,01,49,15.90
2016,04,20,01,50,15.90
2016,04,20,01,51,15.90
2016,04,20,01,52,15.90
2016,04,20,01,53,15.90
2016,04,20,01,54,15.80
2016,04,20,01,55,15.80
2016,04,20,01,56,15.80
2016,04,20,01,57,15.80
2016,04,20,01,58,15.80
2016,04,20,01,59,15.80
2016,04,20,02,00,15.80
2016,04,20,02,01,15.70
2016,04,20,02,02,15.70
2016,04,20,02,03,15.70
2016,04,20,02,04,15.70
2016,04,20,02,05,15.70
2016,04,20,02,06,15.70
2016,04,20,02,07,15.60
2016,04,20,02,08,15.60
2016,04,20,02,09,15.60
2016,04,20,02,10,15.60
2016,04,20,02,11,15.60
2016,04,20,02,12,15.50
2016,04,20,02,13,15.50
2016,04,20,02,14,15.50
2016,04,20,02,15,15.50
2016,04,20,02,16,15.40
2016,04,20,02,17,15.40
2016,04,20,02,18,15.40
2016,04,20,02,19,15.40
2016,04,20,02,20,15.40
2016,04,20,02,21,15.40
2016,04,20,02,22,15.30
2016,04,20,02,23,15.30
2016,04,20,02,24,15.30
2016,04,20,02,25,15.30
2016,04,20,02,26,15.30
2016,04,20,02,27,15.30
2016,04,20,02,28,15.30
2016,04,20,02,29,15.20
2016,04,20,02,30,15.20
2016,04,20,02,31,15.20
2016,04,20,02,32,15.20
2016,04,20,02,33,15.20
2016,04,20,02,34,15.20
2016,04,20,02,35,15.20
2016,04,20,02,36,15.10
2016,04,20,02,37,15.10
2016,04,20,02,38,15.10
2016,04,20,02,39,15.10
2016,04,20,02,40,15.10
2016,04,20,02,41,15.10
2016,04,20,02,42,15.10
2016,04,20,02,43,15.10
2016,04,20,02,44,15.10
2016,04,20,02,45,15.10
2016,04,20,02,46,15.10
2016,04,20,02,47,15.10
2016,04,20,02,48,15.10
2016,04,20,02,49,15.10
2016,04,20,02,50,15.10
2016,04,20,02,51,15.10
2016,04,20,02,52,15.10
2016,04,20,02,53,15.00
2016,04,20,02,54,15.00
2016,04,20,02,55,15.00
2016,04,20,02,56,15.00
2016,04,20,02,57,15.00
2016,04,20,02,58,14.90
2016,04,20,02,59,14.90
2016,04,20,03,00,14.90
2016,04,20,03,01,14.90
2016,04,20,03,02,14.90
2016,04,20,03,03,14.90
2016,04,20,03,04,14.80
2016,04,20,03,05,14.80
2016,04,20,03,06,14.80
2016,04,20,03,07,14.80
2016,04,20,03,08,14.80
2016,04,20,03,09,14.80
2016,04,20,03,10,14.80
2016,04,20,03,11,14.80
2016,04,20,03,12,14.80
2016,04,20,03,13,14.80
2016,04,20,03,14,14.80
2016,04,20,03,15,14.80
2016,04,20,03,16,14.80
2016,04,20,03,17,14.80
2016,04,20,03,18,14.90
2016,04,20,03,19,14.90
2016,04,20,03,20,14.90
2016,04,20,03,21,14.90
2016,04,20,03,22,15.00
2016,04,20,03,23,15.00
2016,04,20,03,24,15.00
2016,04,20,03,25,15.00
2016,04,20,03,26,15.00
2016,04,20,03,27,15.00
2016,04,20,03,28,15.10
2016,04,20,03,29,15.10
2016,04,20,03,30,15.10
2016,04,20,03,31,15.10
2016,04,20,03,32,15.10
2016,04,20,03,33,15.10
2016,04,20,03,34,15.10
2016,04,20,03,35,15.10
2016,04,20,03,36,15.10
2016,04,20,03,37,15.10
2016,04,20,03,38,15.10
2016,04,20,03,39,15.10
2016,04,20,03,40,15.10
2016,04,20,03,41,15.10
2016,04,20,03,42,15.10
2016,04,20,03,43,15.10
2016,04,20,03,44,15.10
2016,04,20,03,45,15.00
2016,04,20,03,46,15.00
2016,04,20,03,47,15.00
2016,04,20,03,48,15.00
2016,04,20,03,49,14.90
2016,04,20,03,50,14.90
2016,04,20,03,51,14.90
2016,04,20,03,52,14.90
2016,04,20,03,53,14.80
2016,04,20,03,54,14.80
2016,04,20,03,55,14.80
2016,04,20,03,56,14.80
2016,04,20,03,57,14.80
2016,04,20,03,58,14.70
2016,04,20,03,59,14.70
2016,04,20,04,00,14.70
2016,04,20,04,01,14.70
2016,04,20,04,02,14.70
2016,04,20,04,03,14.60
2016,04,20,04,04,14.60
2016,04,20,04,05,14.60
2016,04,20,04,06,14.60
2016,04,20,04,07,14.50
2016,04,20,04,08,14.50
2016,04,20,04,09,14.50
2016,04,20,04,10,14.50
2016,04,20,04,11,14.40
2016,04,20,04,12,14.40
2016,04,20,04,13,14.40
2016,04,20,04,14,14.30
2016,04,20,04,15,14.30
2016,04,20,04,16,14.30
2016,04,20,04,17,14.30
2016,04,20,04,18,14.30
2016,04,20,04,19,14.20
2016,04,20,04,20,14.20
2016,04,20,04,21,14.20
2016,04,20,04,22,14.10
2016,04,20,04,23,14.10
2016,04,20,04,24,14.10
2016,04,20,04,25,14.00
2016,04,20,04,26,14.00
2016,04,20,04,27,13.90
2016,04,20,04,28,13.90
2016,04,20,04,29,13.80
2016,04,20,04,30,13.80
2016,04,20,04,31,13.80
2016,04,20,04,32,13.80
2016,04,20,04,33,13.80
2016,04,20,04,34,13.90
2016,04,20,04,35,13.90
2016,04,20,04,36,13.90
2016,04,20,04,37,13.90
2016,04,20,04,38,13.90
2016,04,20,04,39,13.90
2016,04,20,04,40,13.90
2016,04,20,04,41,13.90
2016,04,20,04,42,13.80
2016,04,20,04,43,13.80
2016,04,20,04,44,13.80
2016,04,20,04,45,13.80
2016,04,20,04,46,13.80
2016,04,20,04,47,13.80
2016,04,20,04,48,13.80
2016,04,20,04,49,13.80
2016,04,20,04,50,13.80
2016,04,20,04,51,13.80
2016,04,20,04,52,13.80
2016,04,20,04,53,13.70
2016,04,20,04,54,13.70
2016,04,20,04,55,13.70
2016,04,20,04,56,13.70
2016,04,20,04,57,13.70
2016,04,20,04,58,13.60
2016,04,20,04,59,13.60
2016,04,20,05,00,13.60
2016,04,20,05,01,13.60
2016,04,20,05,02,13.60
2016,04,20,05,03,13.60
2016,04,20,05,04,13.60
2016,04,20,05,05,13.60
2016,04,20,05,06,13.60
2016,04,20,05,07,13.60
2016,04,20,05,08,13.70
2016,04,20,05,09,13.70
2016,04,20,05,10,13.70
2016,04,20,05,11,13.70
2016,04,20,05,12,13.70
2016,04,20,05,13,13.70
2016,04,20,05,14,13.70
2016,04,20,05,15,13.70
2016,04,20,05,16,13.70
2016,04,20,05,17,13.80
2016,04,20,05,18,13.80
2016,04,20,05,19,13.80
2016,04,20,05,20,13.80
2016,04,20,05,21,13.80
2016,04,20,05,22,13.80
2016,04,20,05,23,13.80
2016,04,20,05,24,13.80
2016,04,20,05,25,13.90
2016,04,20,05,26,13.90
2016,04,20,05,27,13.90
2016,04,20,05,28,13.90
2016,04,20,05,29,13.90
2016,04,20,05,30,14.00
2016,04,20,05,31,14.00
2016,04,20,05,32,14.00
2016,04,20,05,33,14.00
2016,04,20,05,34,14.10
2016,04,20,05,35,14.10
2016,04,20,05,36,14.10
2016,04,20,05,37,14.10
2016,04,20,05,38,14.20
2016,04,20,05,39,14.20
2016,04,20,05,40,14.20
2016,04,20,05,41,14.20
2016,04,20,05,42,14.20
2016,04,20,05,43,14.30
2016,04,20,05,44,14.30
2016,04,20,05,45,14.30
2016,04,20,05,46,14.30
2016,04,20,05,47,14.30
2016,04,20,05,48,14.30
2016,04,20,05,49,14.30
2016,04,20,05,50,14.30
2016,04,20,05,51,14.30
2016,04,20,05,52,14.20
2016,04,20,05,53,14.20
2016,04,20,05,54,14.20
2016,04,20,05,55,14.20
2016,04,20,05,56,14.20
2016,04,20,05,57,14.10
2016,04,20,05,58,14.10
2016,04,20,05,59,14.10
2016,04,20,06,00,14.10
2016,04,20,06,01,14.10
2016,04,20,06,02,14.20
2016,04,20,06,03,14.20
2016,04,20,06,04,14.20
2016,04,20,06,05,14.20
2016,04,20,06,06,14.20
2016,04,20,06,07,14.30
2016,04,20,06,08,14.30
2016,04,20,06,09,14.30
2016,04,20,06,10,14.30
2016,04,20,06,11,14.30
2016,04,20,06,12,14.40
2016,04,20,06,13,14.40
2016,04,20,06,14,14.40
2016,04,20,06,15,14.40
2016,04,20,06,16,14.40
2016,04,20,06,17,14.40
2016,04,20,06,18,14.40
2016,04,20,06,19,14.40
2016,04,20,06,20,14.40
2016,04,20,06,21,14.40
2016,04,20,06,22,14.40
2016,04,20,06,23,14.40
2016,04,20,06,24,14.40
2016,04,20,06,25,14.30
2016,04,20,06,26,14.30
2016,04,20,06,27,14.30
2016,04,20,06,28,14.30
2016,04,20,06,29,14.20
2016,04,20,06,30,14.20
2016,04,20,06,31,14.20
2016,04,20,06,32,14.20
2016,04,20,06,33,14.30
2016,04,20,06,34,14.30
2016,04,20,06,35,14.30
2016,04,20,06,36,14.30
2016,04,20,06,37,14.30
2016,04,20,06,38,14.30
2016,04,20,06,39,14.30
2016,04,20,06,40,14.30
2016,04,20,06,41,14.30
2016,04,20,06,42,14.30
2016,04,20,06,43,14.30
2016,04,20,06,44,14.30
2016,04,20,06,45,14.40
2016,04,20,06,46,14.40
2016,04,20,06,47,14.40
2016,04,20,06,48,14.40
2016,04,20,06,49,14.40
2016,04,20,06,50,14.40
2016,04,20,06,51,14.40
2016,04,20,06,52,14.40
2016,04,20,06,53,14.40
2016,04,20,06,54,14.40
2016,04,20,06,55,14.40
2016,04,20,06,56,14.40
2016,04,20,06,57,14.40
2016,04,20,06,58,14.40
2016,04,20,06,59,14.40
2016,04,20,07,00,14.40
2016,04,20,07,01,14.40
2016,04,20,07,02,14.40
2016,04,20,07,03,14.40
2016,04,20,07,04,14.40
2016,04,20,07,05,14.40
2016,04,20,07,06,14.40
2016,04,20,07,07,14.40
2016,04,20,07,08,14.40
2016,04,20,07,09,14.40
2016,04,20,07,10,14.30
2016,04,20,07,11,14.30
2016,04,20,07,12,14.30
2016,04,20,07,13,14.30
2016,04,20,07,14,14.30
2016,04,20,07,15,14.30
2016,04,20,07,16,14.30
2016,04,20,07,17,14.30
2016,04,20,07,18,14.30
2016,04,20,07,19,14.30
2016,04,20,07,20,14.30
2016,04,20,07,21,14.30
2016,04,20,07,22,14.30
2016,04,20,07,23,14.30
2016,04,20,07,24,14.30
2016,04,20,07,25,14.40
2016,04,20,07,26,14.40
2016,04,20,07,27,14.50
2016,04,20,07,28,14.50
2016,04,20,07,29,14.60
2016,04,20,07,30,14.60
2016,04,20,07,31,14.70
2016,04,20,07,32,14.70
2016,04,20,07,33,14.80
2016,04,20,07,34,14.80
2016,04,20,07,35,14.90
2016,04,20,07,36,14.90
2016,04,20,07,37,15.00
2016,04,20,07,38,15.10
2016,04,20,07,39,15.20
2016,04,20,07,40,15.20
2016,04,20,07,41,15.30
2016,04,20,07,42,15.40
2016,04,20,07,43,15.40
2016,04,20,07,44,15.50
2016,04,20,07,45,15.60
2016,04,20,07,46,15.60
2016,04,20,07,47,15.70
2016,04,20,07,48,15.70
2016,04,20,07,49,15.80
2016,04,20,07,50,15.80
2016,04,20,07,51,15.90
2016,04,20,07,52,15.90
2016,04,20,07,53,16.00
2016,04,20,07,54,16.00
2016,04,20,07,55,16.10
2016,04,20,07,56,16.10
2016,04,20,07,57,16.20
2016,04,20,07,58,16.20
2016,04,20,07,59,16.30
2016,04,20,08,00,16.30
2016,04,20,08,01,16.40
2016,04,20,08,02,16.50
2016,04,20,08,03,16.50
2016,04,20,08,04,16.60
2016,04,20,08,05,16.70
2016,04,20,08,06,16.70
2016,04,20,08,07,16.80
2016,04,20,08,08,16.80
2016,04,20,08,09,16.90
2016,04,20,08,10,17.00
2016,04,20,08,11,17.10
2016,04,20,08,12,17.10
2016,04,20,08,13,17.20
2016,04,20,08,14,17.20
2016,04,20,08,15,17.20
2016,04,20,08,16,17.30
2016,04,20,08,17,17.30
2016,04,20,08,18,17.40
2016,04,20,08,19,17.40
2016,04,20,08,20,17.50
2016,04,20,08,21,17.60
2016,04,20,08,22,17.60
2016,04,20,08,23,17.70
2016,04,20,08,24,17.80
2016,04,20,08,25,17.80
2016,04,20,08,26,17.90
2016,04,20,08,27,18.00
2016,04,20,08,28,18.00
2016,04,20,08,29,18.10
2016,04,20,08,30,18.10
2016,04,20,08,31,18.10
2016,04,20,08,32,18.20
2016,04,20,08,33,18.20
2016,04,20,08,34,18.20
2016,04,20,08,35,18.20
2016,04,20,08,36,18.20
2016,04,20,08,37,18.30
2016,04,20,08,38,18.30
2016,04,20,08,39,18.30
2016,04,20,08,40,18.30
2016,04,20,08,41,18.40
2016,04,20,08,42,18.40
2016,04,20,08,43,18.50
2016,04,20,08,44,18.50
2016,04,20,08,45,18.60
2016,04,20,08,46,18.60
2016,04,20,08,47,18.60
2016,04,20,08,48,18.60
2016,04,20,08,49,18.60
2016,04,20,08,50,18.60
2016,04,20,08,51,18.50
2016,04,20,08,52,18.50
2016,04,20,08,53,18.50
2016,04,20,08,54,18.50
2016,04,20,08,55,18.40
2016,04,20,08,56,18.40
2016,04,20,08,57,18.40
2016,04,20,08,58,18.40
2016,04,20,08,59,18.40
2016,04,20,09,00,18.50
2016,04,20,09,01,18.50
2016,04,20,09,02,18.50
2016,04,20,09,03,18.50
2016,04,20,09,04,18.60
2016,04,20,09,05,18.60
2016,04,20,09,06,18.60
2016,04,20,09,07,18.60
2016,04,20,09,08,18.60
2016,04,20,09,09,18.70
2016,04,20,09,10,18.70
2016,04,20,09,11,18.70
2016,04,20,09,12,18.80
2016,04,20,09,13,18.80
2016,04,20,09,14,18.80
2016,04,20,09,15,18.90
2016,04,20,09,16,18.90
2016,04,20,09,17,19.00
2016,04,20,09,18,19.00
2016,04,20,09,19,19.10
2016,04,20,09,20,19.20
2016,04,20,09,21,19.20
2016,04,20,09,22,19.30
2016,04,20,09,23,19.40
2016,04,20,09,24,19.40
2016,04,20,09,25,19.50
2016,04,20,09,26,19.60
2016,04,20,09,27,19.60
2016,04,20,09,28,19.70
2016,04,20,09,29,19.70
2016,04,20,09,30,19.80
2016,04,20,09,31,19.80
2016,04,20,09,32,19.70
2016,04,20,09,33,19.70
2016,04,20,09,34,19.80
2016,04,20,09,35,19.80
2016,04,20,09,36,19.80
2016,04,20,09,37,19.80
2016,04,20,09,38,19.90
2016,04,20,09,39,19.90
2016,04,20,09,40,19.90
2016,04,20,09,41,19.80
2016,04,20,09,42,19.80
2016,04,20,09,43,19.70
2016,04,20,09,44,19.70
2016,04,20,09,45,19.70
2016,04,20,09,46,19.70
2016,04,20,09,47,19.70
2016,04,20,09,48,19.70
2016,04,20,09,49,19.70
2016,04,20,09,50,19.70
2016,04,20,09,51,19.70
2016,04,20,09,52,19.70
2016,04,20,09,53,19.70
2016,04,20,09,54,19.80
2016,04,20,09,55,19.80
2016,04,20,09,56,19.80
2016,04,20,09,57,19.90
2016,04,20,09,58,19.90
2016,04,20,09,59,19.90
2016,04,20,10,00,20.00
2016,04,20,10,01,20.00
2016,04,20,10,02,20.10
2016,04,20,10,03,20.10
2016,04,20,10,04,20.20
2016,04,20,10,05,20.20
2016,04,20,10,06,20.20
2016,04,20,10,07,20.20
2016,04,20,10,08,20.20
2016,04,20,10,09,20.20
2016,04,20,10,10,20.20
2016,04,20,10,11,20.20
2016,04,20,10,12,20.30
2016,04,20,10,13,20.30
2016,04,20,10,14,20.30
2016,04,20,10,15,20.30
2016,04,20,10,16,20.30
2016,04,20,10,17,20.30
2016,04,20,10,18,20.40
2016,04,20,10,19,20.40
2016,04,20,10,20,20.50
2016,04,20,10,21,20.50
2016,04,20,10,22,20.50
2016,04,20,10,23,20.60
2016,04,20,10,24,20.60
2016,04,20,10,25,20.60
2016,04,20,10,26,20.60
2016,04,20,10,27,20.60
2016,04,20,10,28,20.70
2016,04,20,10,29,20.70
2016,04,20,10,30,20.70
2016,04,20,10,31,20.80
2016,04,20,10,32,20.80
2016,04,20,10,33,20.90
2016,04,20,10,34,20.90
2016,04,20,10,35,21.00
2016,04,20,10,36,21.10
2016,04,20,10,37,21.20
2016,04,20,10,38,21.30
2016,04,20,10,39,21.40
2016,04,20,10,40,21.50
2016,04,20,10,41,21.60
2016,04,20,10,42,21.60
2016,04,20,10,43,21.70
2016,04,20,10,44,21.70
2016,04,20,10,45,21.80
2016,04,20,10,46,21.80
2016,04,20,10,47,21.80
2016,04,20,10,48,21.80
2016,04,20,10,49,21.80
2016,04,20,10,50,21.80
2016,04,20,10,51,21.70
2016,04,20,10,52,21.70
2016,04,20,10,53,21.70
2016,04,20,10,54,21.80
2016,04,20,10,55,21.80
2016,04,20,10,56,21.80
2016,04,20,10,57,21.80
2016,04,20,10,58,21.80
2016,04,20,10,59,21.60
2016,04,20,11,00,21.50
2016,04,20,11,01,21.40
2016,04,20,11,02,21.30
2016,04,20,11,03,21.30
2016,04,20,11,04,21.40
2016,04,20,11,05,21.40
2016,04,20,11,06,21.50
2016,04,20,11,07,21.50
2016,04,20,11,08,21.60
2016,04,20,11,09,21.60
2016,04,20,11,10,21.50
2016,04,20,11,11,21.50
2016,04,20,11,12,21.40
2016,04,20,11,13,21.30
2016,04,20,11,14,21.30
2016,04,20,11,15,21.30
2016,04,20,11,16,21.30
2016,04,20,11,17,21.30
2016,04,20,11,18,21.40
2016,04,20,11,19,21.50
2016,04,20,11,20,21.60
2016,04,20,11,21,21.70
2016,04,20,11,22,21.70
2016,04,20,11,23,21.70
2016,04,20,11,24,21.60
2016,04,20,11,25,21.60
2016,04,20,11,26,21.50
2016,04,20,11,27,21.40
2016,04,20,11,28,21.40
2016,04,20,11,29,21.40
2016,04,20,11,30,21.40
2016,04,20,11,31,21.40
2016,04,20,11,32,21.40
2016,04,20,11,33,21.30
2016,04,20,11,34,21.40
2016,04,20,11,35,21.40
2016,04,20,11,36,21.40
2016,04,20,11,37,21.40
2016,04,20,11,38,21.40
2016,04,20,11,39,21.40
2016,04,20,11,40,21.30
2016,04,20,11,41,21.30
2016,04,20,11,42,21.20
2016,04,20,11,43,21.20
2016,04,20,11,44,21.20
2016,04,20,11,45,21.30
2016,04,20,11,46,21.40
2016,04,20,11,47,21.50
2016,04,20,11,48,21.50
2016,04,20,11,49,21.50
2016,04,20,11,50,21.60
2016,04,20,11,51,21.60
2016,04,20,11,52,21.60
2016,04,20,11,53,21.70
2016,04,20,11,54,21.70
2016,04,20,11,55,21.80
2016,04,20,11,56,21.90
2016,04,20,11,57,22.00
2016,04,20,11,58,22.10
2016,04,20,11,59,22.20
2016,04,20,12,00,22.30
2016,04,20,12,01,22.40
2016,04,20,12,02,22.40
2016,04,20,12,03,22.50
2016,04,20,12,04,22.50
2016,04,20,12,05,22.50
2016,04,20,12,06,22.60
2016,04,20,12,07,22.70
2016,04,20,12,08,22.80
2016,04,20,12,09,22.90
2016,04,20,12,10,23.00
2016,04,20,12,11,23.00
2016,04,20,12,12,23.10
2016,04,20,12,13,23.10
2016,04,20,12,14,23.20
2016,04,20,12,15,23.20
2016,04,20,12,16,23.30
2016,04,20,12,17,23.30
2016,04,20,12,18,23.30
2016,04,20,12,19,23.40
2016,04,20,12,20,23.40
2016,04,20,12,21,23.50
2016,04,20,12,22,23.50
2016,04,20,12,23,23.60
2016,04,20,12,24,23.60
2016,04,20,12,25,23.70
2016,04,20,12,26,23.70
2016,04,20,12,27,23.80
2016,04,20,12,28,23.90
2016,04,20,12,29,23.90
2016,04,20,12,30,23.90
2016,04,20,12,31,23.80
2016,04,20,12,32,23.70
2016,04,20,12,33,23.60
2016,04,20,12,34,23.60
2016,04,20,12,35,23.70
2016,04,20,12,36,23.70
2016,04,20,12,37,23.80
2016,04,20,12,38,23.80
2016,04,20,12,39,23.90
2016,04,20,12,40,23.90
2016,04,20,12,41,23.90
2016,04,20,12,42,23.90
2016,04,20,12,43,23.90
2016,04,20,12,44,24.00
2016,04,20,12,45,24.00
2016,04,20,12,46,23.90
2016,04,20,12,47,23.90
2016,04,20,12,48,23.90
2016,04,20,12,49,24.00
2016,04,20,12,50,24.10
2016,04,20,12,51,24.10
2016,04,20,12,52,24.20
2016,04,20,12,53,24.30
2016,04,20,12,54,24.30
2016,04,20,12,55,24.30
2016,04,20,12,56,24.20
2016,04,20,12,57,24.00
2016,04,20,12,58,23.90
2016,04,20,12,59,23.80
2016,04,20,13,00,23.80
2016,04,20,13,01,23.90
2016,04,20,13,02,23.90
2016,04,20,13,03,24.00
2016,04,20,13,04,24.10
2016,04,20,13,05,24.10
2016,04,20,13,06,24.10
2016,04,20,13,07,24.10
2016,04,20,13,08,24.10
2016,04,20,13,09,24.10
2016,04,20,13,10,24.10
2016,04,20,13,11,24.20
2016,04,20,13,12,24.20
2016,04,20,13,13,24.20
2016,04,20,13,14,24.20
2016,04,20,13,15,24.20
2016,04,20,13,16,24.30
2016,04,20,13,17,24.30
2016,04,20,13,18,24.40
2016,04,20,13,19,24.40
2016,04,20,13,20,24.50
2016,04,20,13,21,24.60
2016,04,20,13,22,24.70
2016,04,20,13,23,24.80
2016,04,20,13,24,24.90
2016,04,20,13,25,25.00
2016,04,20,13,26,25.10
2016,04,20,13,27,25.20
2016,04,20,13,28,25.20
2016,04,20,13,29,25.20
2016,04,20,13,30,25.10
2016,04,20,13,31,25.00
2016,04,20,13,32,24.90
2016,04,20,13,33,24.60
2016,04,20,13,34,24.50
2016,04,20,13,35,24.50
2016,04,20,13,36,24.50
2016,04,20,13,37,24.50
2016,04,20,13,38,24.50
2016,04,20,13,39,24.50
2016,04,20,13,40,24.50
2016,04,20,13,41,24.40
2016,04,20,13,42,24.50
2016,04,20,13,43,24.50
2016,04,20,13,44,24.60
2016,04,20,13,45,24.70
2016,04,20,13,46,24.70
2016,04,20,13,47,24.70
2016,04,20,13,48,24.80
2016,04,20,13,49,24.90
2016,04,20,13,50,25.10
2016,04,20,13,51,25.20
2016,04,20,13,52,25.30
2016,04,20,13,53,25.30
2016,04,20,13,54,25.40
2016,04,20,13,55,25.50
2016,04,20,13,56,25.60
2016,04,20,13,57,25.60
2016,04,20,13,58,25.60
2016,04,20,13,59,25.60
2016,04,20,14,00,25.60
2016,04,20,14,01,25.70
2016,04,20,14,02,25.70
2016,04,20,14,03,25.70
2016,04,20,14,04,25.70
2016,04,20,14,05,25.80
2016,04,20,14,06,25.80
2016,04,20,14,07,25.80
2016,04,20,14,08,25.80
2016,04,20,14,09,25.80
2016,04,20,14,10,25.70
2016,04,20,14,11,25.60
2016,04,20,14,12,25.50
2016,04,20,14,13,25.40
2016,04,20,14,14,25.40
2016,04,20,14,15,25.50
2016,04,20,14,16,25.50
2016,04,20,14,17,25.60
2016,04,20,14,18,25.60
2016,04,20,14,19,25.70
2016,04,20,14,20,25.70
2016,04,20,14,21,25.80
2016,04,20,14,22,25.70
2016,04,20,14,23,25.70
2016,04,20,14,24,25.60
2016,04,20,14,25,25.50
2016,04,20,14,26,25.40
2016,04,20,14,27,25.40
2016,04,20,14,28,25.40
2016,04,20,14,29,25.40
2016,04,20,14,30,25.50
2016,04,20,14,31,25.60
2016,04,20,14,32,25.60
2016,04,20,14,33,25.60
2016,04,20,14,34,25.70
2016,04,20,14,35,25.80
2016,04,20,14,36,25.80
2016,04,20,14,37,25.90
2016,04,20,14,38,25.90
2016,04,20,14,39,26.00
2016,04,20,14,40,26.10
2016,04,20,14,41,26.10
2016,04,20,14,42,26.20
2016,04,20,14,43,26.20
2016,04,20,14,44,26.20
2016,04,20,14,45,26.30
2016,04,20,14,46,26.30
2016,04,20,14,47,26.30
2016,04,20,14,48,26.30
2016,04,20,14,49,26.30
2016,04,20,14,50,26.30
2016,04,20,14,51,26.30
2016,04,20,14,52,26.40
2016,04,20,14,53,26.40
2016,04,20,14,54,26.40
2016,04,20,14,55,26.50
2016,04,20,14,56,26.50
2016,04,20,14,57,26.60
2016,04,20,14,58,26.60
2016,04,20,14,59,26.60
2016,04,20,15,00,26.60
2016,04,20,15,01,26.60
2016,04,20,15,02,26.60
2016,04,20,15,03,26.70
2016,04,20,15,04,26.70
2016,04,20,15,05,26.70
2016,04,20,15,06,26.70
2016,04,20,15,07,26.70
2016,04,20,15,08,26.70
2016,04,20,15,09,26.70
2016,04,20,15,10,26.60
2016,04,20,15,11,26.70
2016,04,20,15,12,26.70
2016,04,20,15,13,26.70
2016,04,20,15,14,26.80
2016,04,20,15,15,26.70
2016,04,20,15,16,26.60
2016,04,20,15,17,26.50
2016,04,20,15,18,26.40
2016,04,20,15,19,26.30
2016,04,20,15,20,26.30
2016,04,20,15,21,26.30
2016,04,20,15,22,26.20
2016,04,20,15,23,26.30
2016,04,20,15,24,26.30
2016,04,20,15,25,26.40
2016,04,20,15,26,26.40
2016,04,20,15,27,26.50
2016,04,20,15,28,26.60
2016,04,20,15,29,26.60
2016,04,20,15,30,26.70
2016,04,20,15,31,26.90
2016,04,20,15,32,27.00
2016,04,20,15,33,27.10
2016,04,20,15,34,27.20
2016,04,20,15,35,27.30
2016,04,20,15,36,27.40
2016,04,20,15,37,27.40
2016,04,20,15,38,27.40
2016,04,20,15,39,27.40
2016,04,20,15,40,27.40
2016,04,20,15,41,27.20
2016,04,20,15,42,27.00
2016,04,20,15,43,26.80
2016,04,20,15,44,26.50
2016,04,20,15,45,26.30
2016,04,20,15,46,25.90
2016,04,20,15,47,25.70
2016,04,20,15,48,25.50
2016,04,20,15,49,25.40
2016,04,20,15,50,25.30
2016,04,20,15,51,25.10
2016,04,20,15,52,24.90
2016,04,20,15,53,24.70
2016,04,20,15,54,24.60
2016,04,20,15,55,24.40
2016,04,20,15,56,24.30
2016,04,20,15,57,24.20
2016,04,20,15,58,24.20
2016,04,20,15,59,24.20
2016,04,20,16,00,24.10
2016,04,20,16,01,24.10
2016,04,20,16,02,24.10
2016,04,20,16,03,24.10
2016,04,20,16,04,24.10
2016,04,20,16,05,24.10
2016,04,20,16,06,24.00
2016,04,20,16,07,24.00
2016,04,20,16,08,23.90
2016,04,20,16,09,23.90
2016,04,20,16,10,23.80
2016,04,20,16,11,23.70
2016,04,20,16,12,23.70
2016,04,20,16,13,23.70
2016,04,20,16,14,23.70
2016,04,20,16,15,23.80
2016,04,20,16,16,23.80
2016,04,20,16,17,23.90
2016,04,20,16,18,23.90
2016,04,20,16,19,24.00
2016,04,20,16,20,24.10
2016,04,20,16,21,24.20
2016,04,20,16,22,24.30
2016,04,20,16,23,24.30
2016,04,20,16,24,24.30
2016,04,20,16,25,24.30
2016,04,20,16,26,24.30
2016,04,20,16,27,24.20
2016,04,20,16,28,24.10
2016,04,20,16,29,23.90
2016,04,20,16,30,23.70
2016,04,20,16,31,23.50
2016,04,20,16,32,23.30
2016,04,20,16,33,23.20
2016,04,20,16,34,22.90
2016,04,20,16,35,22.50
2016,04,20,16,36,22.10
2016,04,20,16,37,21.60
2016,04,20,16,38,21.20
2016,04,20,16,39,21.00
2016,04,20,16,40,20.70
2016,04,20,16,41,20.50
2016,04,20,16,42,20.20
2016,04,20,16,43,20.00
2016,04,20,16,44,19.80
2016,04,20,16,45,19.50
2016,04,20,16,46,19.40
2016,04,20,16,47,19.40
2016,04,20,16,48,19.30
2016,04,20,16,49,19.30
2016,04,20,16,50,19.30
2016,04,20,16,51,19.30
2016,04,20,16,52,19.30
2016,04,20,16,53,19.30
2016,04,20,16,54,19.30
2016,04,20,16,55,19.40
2016,04,20,16,56,19.40
2016,04,20,16,57,19.40
2016,04,20,16,58,19.50
2016,04,20,16,59,19.60
2016,04,20,17,00,19.60
2016,04,20,17,01,19.60
2016,04,20,17,02,19.70
2016,04,20,17,03,19.70
2016,04,20,17,04,19.70
2016,04,20,17,05,19.80
2016,04,20,17,06,19.90
2016,04,20,17,07,19.90
2016,04,20,17,08,20.00
2016,04,20,17,09,20.10
2016,04,20,17,10,20.10
2016,04,20,17,11,20.10
2016,04,20,17,12,20.20
2016,04,20,17,13,20.20
2016,04,20,17,14,20.20
2016,04,20,17,15,20.30
2016,04,20,17,16,20.30
2016,04,20,17,17,20.40
2016,04,20,17,18,20.40
2016,04,20,17,19,20.40